AII-CHARLIE (47440 NORAD) Tracking and Keplerian Element Data

This shows tracking and keplerian element data for the satellite.

Feedback or suggestion? Click here.




ElementValue
Catalog47440
NameAII-CHARLIE
Epoch Orbit1199
Epoch Day101.92165206
Epoch Year2021
RAAN164.297
Inclination97.4931
Eccentricity0.001165
Argument of Perigee338.5817
Mean Anonmoly21.4925
Mean Motion15.12922936
Decay Rate9.38E-06
L11 47440U 21006AD 21101.92165206 .00000938 00000-0 56882-4 0 9997
L22 47440 97.4931 164.2970 0011650 338.5817 21.4925 15.12922936 11994

Live tracking and technical data element details for AII-CHARLIE (NORAD 47440). AII-CHARLIE can be tracked NOW for your location showing map with azimuth and elevation plus other details from your city location.

Track the satellite on the map from your city or location and see movement details for azimuth, elevation, latitude, longitude, range, height, and movement on the map or in text.







IsCatalogInMostPopularTable: catalog: 47440, numindb: 13
Update: records affected: 1



GetName: 47440 AII-CHARLIE

Hit Count: updated at: Tue, 13 Apr 2021 04:56:28 GMT